AQT-D (44791 NORAD) Tracking and Keplerian Element Data

This shows tracking and keplerian element data for the satellite.

Feedback or suggestion? Click here.




ElementValue
Catalog44791
NameAQT-D
Epoch Orbit2092
Epoch Day94.11482548
Epoch Year2020
RAAN358.2896
Inclination51.6429
Eccentricity0.0003335
Argument of Perigee75.2898
Mean Anonmoly284.8461
Mean Motion15.51685768
Decay Rate2.963E-05
L11 44791U 98067QW 20094.11482548 .00002963 00000-0 56551-4 0 9999
L22 44791 51.6429 358.2896 0003335 75.2898 284.8461 15.51685768 20926

Live tracking and technical data element details for AQT-D (NORAD 44791). AQT-D can be tracked NOW for your location showing map with azimuth and elevation plus other details from your city location.

Track the satellite on the map from your city or location and see movement details for azimuth, elevation, latitude, longitude, range, height, and movement on the map or in text.







IsCatalogInMostPopularTable: catalog: 44791, numindb: 40
Update: records affected: 1



GetName: 44791 AQT-D

Hit Count: updated at: Fri, 03 Apr 2020 23:24:04 GMT